Hourly Weather Kladniki

Today, 27 July, Tuesday

Time Temperature Precipitation Wind Pressure Humidity
00:00 +20°C° 0.2 mm 3 mps 747 mmHg 77%
01:00 +20°C° 0.2 mm 4 mps 747 mmHg 82%
02:00 +19°C° 0.2 mm 4 mps 747 mmHg 86%
03:00 +19°C° 0.4 mm 4 mps 747 mmHg 89%
04:00 +18°C° 0.4 mm 4 mps 747 mmHg 91%
05:00 +18°C° 0.4 mm 4 mps 746 mmHg 94%
06:00 +19°C° 0.4 mm 4 mps 746 mmHg 92%
07:00 +20°C° 0.4 mm 4 mps 746 mmHg 90%
08:00 +21°C° 0.4 mm 4 mps 746 mmHg 87%
09:00 +23°C° 0 mm 4 mps 746 mmHg 80%
10:00 +25°C° 0 mm 5 mps 746 mmHg 72%
11:00 +27°C° 0 mm 5 mps 746 mmHg 65%
12:00 +28°C° 0 mm 4 mps 746 mmHg 62%
13:00 +29°C° 0 mm 4 mps 746 mmHg 59%
14:00 +30°C° 0 mm 4 mps 746 mmHg 56%
15:00 +29°C° 0.4 mm 3 mps 745 mmHg 59%
16:00 +29°C° 0.4 mm 3 mps 745 mmHg 63%
17:00 +28°C° 0.4 mm 2 mps 745 mmHg 66%
18:00 +26°C° 2 mm 2 mps 745 mmHg 74%
19:00 +24°C° 2 mm 2 mps 745 mmHg 83%
20:00 +22°C° 2 mm 1 mps 745 mmHg 91%
21:00 +22°C° 0.5 mm 1 mps 745 mmHg 91%
22:00 +20°C° 0.5 mm 2 mps 745 mmHg 92%
23:00 +20°C° 0.5 mm 2 mps 745 mmHg 93%

Tomorrow, 28 July, Wednesday

Time Temperature Precipitation Wind Pressure Humidity
00:00 +19°C° 0.3 mm 2 mps 745 mmHg 93%
01:00 +19°C° 0.3 mm 2 mps 745 mmHg 93%
02:00 +18°C° 0.3 mm 2 mps 744 mmHg 93%
03:00 +18°C° 0 mm 2 mps 744 mmHg 94%
04:00 +18°C° 0 mm 2 mps 744 mmHg 94%
05:00 +18°C° 0 mm 2 mps 744 mmHg 95%
06:00 +19°C° 0 mm 2 mps 744 mmHg 91%
07:00 +21°C° 0 mm 2 mps 745 mmHg 87%
08:00 +23°C° 0 mm 2 mps 745 mmHg 83%
09:00 +24°C° 0.1 mm 2 mps 745 mmHg 77%
10:00 +26°C° 0.1 mm 2 mps 745 mmHg 71%
11:00 +27°C° 0.1 mm 3 mps 745 mmHg 65%
12:00 +28°C° 0.1 mm 3 mps 745 mmHg 61%
13:00 +28°C° 0.1 mm 3 mps 745 mmHg 56%
14:00 +29°C° 0.1 mm 3 mps 745 mmHg 52%
15:00 +29°C° 0 mm 3 mps 744 mmHg 54%
16:00 +29°C° 0 mm 3 mps 744 mmHg 56%
17:00 +28°C° 0 mm 2 mps 744 mmHg 58%
18:00 +27°C° 0 mm 2 mps 744 mmHg 64%
19:00 +25°C° 0 mm 1 mps 744 mmHg 69%
20:00 +24°C° 0 mm 1 mps 743 mmHg 75%
21:00 +23°C° 0 mm 1 mps 743 mmHg 76%
22:00 +23°C° 0 mm 1 mps 743 mmHg 76%
23:00 +22°C° 0 mm 1 mps 743 mmHg 77%

Day after tomorrow, 29 July, Thursday

Time Temperature Precipitation Wind Pressure Humidity
00:00 +22°C° 0.1 mm 1 mps 743 mmHg 78%
01:00 +21°C° 0.1 mm 1 mps 743 mmHg 79%
02:00 +21°C° 0.1 mm 1 mps 743 mmHg 80%
03:00 +21°C° 0.7 mm 1 mps 743 mmHg 85%
04:00 +19°C° 0.7 mm 2 mps 743 mmHg 90%
05:00 +19°C° 0.7 mm 2 mps 743 mmHg 95%
06:00 +19°C° 1.2 mm 2 mps 743 mmHg 95%
07:00 +20°C° 1.2 mm 1 mps 743 mmHg 95%
08:00 +20°C° 1.2 mm 1 mps 743 mmHg 95%
09:00 +21°C° 0.2 mm 1 mps 744 mmHg 89%
10:00 +23°C° 0.2 mm 2 mps 744 mmHg 82%
11:00 +24°C° 0.2 mm 2 mps 744 mmHg 76%
12:00 +24°C° 0.9 mm 3 mps 744 mmHg 76%
13:00 +25°C° 0.9 mm 3 mps 744 mmHg 75%
14:00 +25°C° 0.9 mm 3 mps 744 mmHg 74%
15:00 +25°C° 0.3 mm 3 mps 743 mmHg 72%
16:00 +26°C° 0.3 mm 3 mps 743 mmHg 70%
17:00 +26°C° 0.3 mm 3 mps 743 mmHg 68%
18:00 +25°C° 0.1 mm 2 mps 743 mmHg 71%
19:00 +23°C° 0.1 mm 2 mps 743 mmHg 74%
20:00 +21°C° 0.1 mm 2 mps 743 mmHg 77%
21:00 +20°C° 0 mm 2 mps 743 mmHg 76%
22:00 +20°C° 0 mm 2 mps 743 mmHg 76%
23:00 +20°C° 0 mm 2 mps 743 mmHg 75%

30 July, Friday

Time Temperature Precipitation Wind Pressure Humidity
00:00 +19°C° 0 mm 2 mps 743 mmHg 76%
01:00 +18°C° 0 mm 2 mps 743 mmHg 77%
02:00 +18°C° 0 mm 2 mps 743 mmHg 79%
03:00 +17°C° 0 mm 2 mps 743 mmHg 81%
04:00 +17°C° 0 mm 2 mps 743 mmHg 83%
05:00 +16°C° 0 mm 2 mps 743 mmHg 85%
06:00 +18°C° 0 mm 2 mps 743 mmHg 80%
07:00 +20°C° 0 mm 3 mps 743 mmHg 74%
08:00 +21°C° 0 mm 3 mps 743 mmHg 69%
09:00 +24°C° 0 mm 3 mps 743 mmHg 64%
10:00 +25°C° 0 mm 3 mps 743 mmHg 59%
11:00 +26°C° 0 mm 4 mps 743 mmHg 54%
12:00 +27°C° 0 mm 4 mps 743 mmHg 54%
13:00 +27°C° 0 mm 4 mps 742 mmHg 54%
14:00 +28°C° 0 mm 5 mps 742 mmHg 53%
15:00 +25°C° 0.6 mm 5 mps 742 mmHg 65%
16:00 +21°C° 0.6 mm 5 mps 742 mmHg 78%
17:00 +19°C° 0.6 mm 5 mps 742 mmHg 90%
18:00 +18°C° 0.1 mm 4 mps 741 mmHg 91%
19:00 +18°C° 0.1 mm 4 mps 741 mmHg 92%
20:00 +18°C° 0.1 mm 3 mps 741 mmHg 94%
21:00 +18°C° 0.1 mm 3 mps 741 mmHg 95%
22:00 +18°C° 0.1 mm 3 mps 741 mmHg 96%
23:00 +17°C° 0.1 mm 3 mps 741 mmHg 97%

31 July, Saturday

Time Temperature Precipitation Wind Pressure Humidity
00:00 +17°C° 0 mm 3 mps 741 mmHg 96%
01:00 +17°C° 0 mm 3 mps 740 mmHg 96%
02:00 +17°C° 0 mm 3 mps 740 mmHg 95%
03:00 +16°C° 0 mm 3 mps 740 mmHg 95%
04:00 +14°C° 0 mm 3 mps 740 mmHg 95%
05:00 +14°C° 0 mm 3 mps 740 mmHg 94%
06:00 +16°C° 0 mm 3 mps 740 mmHg 89%
07:00 +17°C° 0 mm 4 mps 740 mmHg 83%
08:00 +18°C° 0 mm 4 mps 741 mmHg 78%
09:00 +20°C° 0 mm 5 mps 741 mmHg 71%
10:00 +21°C° 0 mm 5 mps 741 mmHg 65%
11:00 +22°C° 0 mm 6 mps 741 mmHg 58%
12:00 +23°C° 0 mm 6 mps 741 mmHg 56%
13:00 +23°C° 0 mm 6 mps 741 mmHg 54%
14:00 +24°C° 0 mm 6 mps 741 mmHg 52%
15:00 +24°C° 0 mm 6 mps 741 mmHg 53%
16:00 +24°C° 0 mm 6 mps 741 mmHg 55%
17:00 +25°C° 0 mm 5 mps 741 mmHg 56%
18:00 +22°C° 0 mm 4 mps 741 mmHg 62%
19:00 +20°C° 0 mm 3 mps 741 mmHg 67%
20:00 +19°C° 0 mm 3 mps 742 mmHg 73%
21:00 +18°C° 0 mm 3 mps 742 mmHg 73%
22:00 +18°C° 0 mm 2 mps 742 mmHg 74%
23:00 +17°C° 0 mm 2 mps 742 mmHg 74%

1 August, Sunday

Time Temperature Precipitation Wind Pressure Humidity
00:00 +17°C° 0 mm 2 mps 742 mmHg 75%
01:00 +16°C° 0 mm 3 mps 742 mmHg 76%
02:00 +16°C° 0 mm 3 mps 742 mmHg 78%
03:00 +16°C° 0 mm 3 mps 742 mmHg 77%
04:00 +14°C° 0 mm 3 mps 742 mmHg 77%
05:00 +14°C° 0 mm 3 mps 743 mmHg 77%
06:00 +17°C° 0 mm 3 mps 743 mmHg 74%
07:00 +18°C° 0 mm 3 mps 743 mmHg 70%
08:00 +20°C° 0 mm 3 mps 743 mmHg 67%
09:00 +21°C° 0 mm 3 mps 743 mmHg 62%
10:00 +24°C° 0 mm 3 mps 743 mmHg 57%
11:00 +25°C° 0 mm 2 mps 743 mmHg 52%
12:00 +26°C° 0 mm 3 mps 743 mmHg 49%
13:00 +26°C° 0 mm 3 mps 742 mmHg 47%
14:00 +27°C° 0 mm 3 mps 742 mmHg 45%
15:00 +26°C° 0 mm 3 mps 742 mmHg 50%
16:00 +26°C° 0 mm 3 mps 741 mmHg 54%
17:00 +25°C° 0 mm 3 mps 741 mmHg 58%
18:00 +24°C° 0.3 mm 3 mps 740 mmHg 67%
19:00 +21°C° 0.3 mm 4 mps 740 mmHg 76%
20:00 +20°C° 0.3 mm 4 mps 739 mmHg 85%
21:00 +20°C° 0.8 mm 4 mps 739 mmHg 87%
22:00 +20°C° 0.8 mm 4 mps 738 mmHg 89%
23:00 +20°C° 0.8 mm 4 mps 738 mmHg 91%
Show more